Regional Weather Roundup
Issued by NWS Newport/Morehead, NC

Current Version | Previous Version | Text Only | Print | Product List | Glossary On
Versions: 1 2 3 4 5 6 7 8 9 10 11 12 13 14 15 16 17 18 19 20 21 22 23 24 25 26 27 28 29 30 31 32 33 34 35 36 37 38 39 40 41 42 43 44 45 46 47 48 49 50
000
ASUS42 KMHX 251510
RWRMHX
WEATHER ROUNDUP FOR EASTERN NORTH CAROLINA
NATIONAL WEATHER SERVICE NEWPORT/MOREHEAD CITY NC
1000 AM EST SUN JAN 25 2015

NOTE: "FAIR" INDICATES FEW OR NO CLOUDS BELOW 12,000 FEET
WITH NO SIGNIFICANT WEATHER AND/OR OBSTRUCTIONS TO VISIBILITY

NCZ015>017-031-032-045>047-102-103-251600-
NORTH COAST

CITY           SKY/WX    TMP DP  RH WIND       PRES   REMARKS
EDENTON        SUNNY     44  33  65 W6        29.96S
ELIZABETH CITY SUNNY     43  32  65 W7        29.96R
KITTY HAWK     SUNNY     43  32  65 W8        29.96R
MANTEO         SUNNY     45  32  61 NW8       29.97R

$$

NCZ045>047-081-094-103-104-251600-
CENTRAL COAST

CITY           SKY/WX    TMP DP  RH WIND       PRES   REMARKS
FRISCO         SUNNY     46  33  60 NW7       29.98R
SWANQUARTER    NOT AVBL

$$

NCZ095-097-098-100-101-251600-
SOUTHERN COAST

CITY           SKY/WX    TMP DP  RH WIND       PRES   REMARKS
BEAUFORT       SUNNY     45  35  68 NW8       30.01R
CEDAR ISLAND   NOT AVBL
JACKSONVILLE   SUNNY     45  33  63 N5        29.99S
PINEY ISLAND     N/A    N/A N/A N/A MISG      29.99R
WILMINGTON     SUNNY     46  35  65 CALM      30.00S


$$

NCZ011>013-027>030-043-044-078>080-089-090>093-098-251600-
COASTAL PLAIN

CITY           SKY/WX    TMP DP  RH WIND       PRES   REMARKS
AHOSKIE        SUNNY     41  31  68 CALM      29.96S
CLINTON        SUNNY     42  37  81 CALM      29.99F
ELIZABETHTOWN  SUNNY     42  33  71 CALM      29.98S
GOLDSBORO      SUNNY     44  40  87 W3        29.98R
GREENVILLE     SUNNY     45  32  61 NW5       30.00R
HAVELOCK       SUNNY     45  32  60 W6        30.01R
KENANSVILLE    SUNNY     43  33  68 CALM      30.00F
KINSTON        SUNNY     45  34  65 SW6       30.00R
NEW BERN       SUNNY     47  32  56 W7        30.01R
RICHLANDS      SUNNY     43  32  65 W3        30.00F
ROCKY MOUNT    SUNNY     43  32  65 W6        29.97R
WASHINGTON     SUNNY     44  32  63 W3        29.98S
WHITEVILLE     MOSUNNY   41  33  74 CALM      29.99S

$$

AMZ130-135-150-152-154-156-158-170-250-252-270-ANZ085-086-088-633-658-670-251600-
MARINE OBSERVATIONS

STATION/POSITION TIME  TEMP    WIND        PRES    WAVE   SWELL
                       AIR SEA DIR/SP/G            HT/PER HT/PER
                 (UTC) (F)     (DEG/KT/KT) (MB)    (FT/S) (FT/S)
CHESAPEAKE LIGHT 1400   42     250/ 10/ 11 1013.5
64 E VA BEACH    1500   45 53  320/ 14/ 17 1012.6    6/ 6   3/11
DUCK             1500   41 43  290/  9/ 11 1013.3
2 E DUCK         1500      43                N/A     3/10   2/11
10 NE DUCK       1500      45                N/A     4/11   2/11
OREGON INLET     1500   42 47  250/  7/  9 1014.6
13E OREGON INLT  1500      46                N/A     5/11   2/11
HATTERAS CG      1500   44 53  310/ 11/ 13 1015.1
DIAMOND BUOY     1500   48 70  340/ 14/ 17 1014.5    5/10   3/10
17 S OCRACOKE    NOT AVBL
CAPE LOOKOUT     1400   44     320/  7/  9 1014.9
BEAUFORT LAB     1500   44 50  320/  6/  9 1014.9
27 SE WRIGHTSVLE NOT AVBL
5 SE WRIGHTSVLE  1400   44 51  340/  8/ 10 1015.2
225 S CAPE HAT   1422   65 72  290/ 12/ 16 1015.5   10/ 9  10/ 9
41 SE CHARLESTON 1500   52 69  320/  8/ 12 1015.8    4/ 6   3/ 6

$$


USA.gov is the U.S. government's official web portal to all federal, state and local government web resources and services.